Voltar ao catálogo

YAOGAN 31 ADAPTER

AtivoLEO
NORAD 47855·DEBRIS·🇨🇳 China
Este nome de satélite ainda não foi confirmado por fontes oficiais.

Lançado Mar 13, 2021 de Jiuquan Satellite Launch Center

Loading…

Próximas Passagens (próximas 24 horas)

TLE

AtualizadoSource: Space-Track

Época: Sep 14, 2026, 16:18 UTC

1 47855U 21020B   26257.67958190 -.00000302  00000-0 -33167-3 0  9991
2 47855  63.4086  40.2990 0178068   1.4127 358.7366 13.44258730270214

Acompanhe YAOGAN 31 ADAPTER em tempo real com AllMySat

Download on the App Store